Regional Weather Roundup
Issued by NWS Kansas City/Pleasant Hill, MO

Home | Current Version | Previous Version | Graphics & Text | Print | Product List | Glossary Off
Versions: 1 2 3 4 5 6 7 8 9 10 11 12 13 14 15 16 17 18 19 20 21 22 23 24 25 26 27

000
ASUS43 KEAX 271210
RWREAX

WEATHER ROUNDUP FOR EASTERN KANSAS AND NORTHWEST MISSOURI
NATIONAL WEATHER SERVICE KANSAS CITY/PLEASANT HILL MO
700 AM CDT SAT AUG 27 2016

KSZ040-057-103>105-MOZ028-029-037-043-271300-
...KANSAS CITY METROPOLITAN AREA...

CITY           SKY/WX    TMP DP  RH WIND       PRES   REMARKS
K.C. INTL      CLOUDY    69  67  93 W16G22    30.06R
6HR MIN TEMP:  66; 6HR MAX TEMP:  70;

K.C. DOWNTOWN  PTCLDY    71  68  90 SW8       30.03R
6HR MIN TEMP:  69; 6HR MAX TEMP:  72; 6HR PCP:  0.02;

LEES SUMMIT    MOCLDY    71  68  90 S8        30.05R
6HR MIN TEMP:  68; 6HR MAX TEMP:  71; 6HR PCP:  0.01;

OLATHE - IXD   CLOUDY    71  70  96 S6        30.05R
6HR MIN TEMP:  69; 6HR MAX TEMP:  71;

OLATHE - OJC   CLOUDY    70  70 100 SW6       30.05R
LAWRENCE       MOCLDY    67  66  97 NW7       30.05R

$$

MOZ001>008-011>017-020>025-030>033-038>040-044>046-053-054-271300-
...NORTHERN AND CENTRAL MISSOURI...

CITY           SKY/WX    TMP DP  RH WIND       PRES   REMARKS
ST. JOSEPH     TSTM      68  68 100 S6        30.04R FOG
6HR MIN TEMP:  68; 6HR MAX TEMP:  69; 6HR PCP: TRACE;

MOSBY          SUNNY     66  66 100 CALM      30.02R
WHITEMAN AFB   MOCLDY    67  67 100 S5        30.03R
6HR MIN TEMP:  67; 6HR MAX TEMP:  71;

CLINTON        CLEAR     68  68 100 CALM      30.05R FOG
SEDALIA        CLEAR     70  69  97 SW6       30.06R
6HR MIN TEMP:  70; 6HR MAX TEMP:  73;

WARSAW         NOT AVBL
CHILLICOTHE    NOT AVBL
KIRKSVILLE     CLEAR     65  64  97 SE5       30.05R
6HR MIN TEMP:  64; 6HR MAX TEMP:  70; 6HR PCP:  0.07;


$$

MOZ041-047>049-056>058-063>065-088>090-097-271300-
...EASTERN AND SOUTHERN MISSOURI...

CITY           SKY/WX    TMP DP  RH WIND       PRES   REMARKS
ST. LOUIS INTL CLOUDY    75  69  81 CALM      30.07R
6HR MIN TEMP:  75; 6HR MAX TEMP:  80;

SPIRIT OF STL  MOCLDY    71  71 100 S3        30.06R
COLUMBIA       MOCLDY    71  70  96 SE6       30.07R
JEFFERSON CITY PTCLDY    71  69  93 CALM      30.05R
ROLLA          MOCLDY    70  68  93 S6        30.07R
OSAGE BEACH    LGT RAIN  72  72 100 S6        30.08R FOG
SPRINGFIELD    PTCLDY    72  69  90 S6        30.08R
BRANSON          N/A     68  68 100 SE3       30.10R
JOPLIN         CLEAR     68  68 100 S3        30.07R
WEST PLAINS    CLOUDY    70  67  90 S5        30.11R

$$

IAZ060-094-KSZ022-034>040-054-083-096-NEZ052-066-093-271300-
...KANSAS...SOUTHEAST NEBRASKA AND IOWA...

CITY           SKY/WX    TMP DP  RH WIND       PRES   REMARKS
TOPEKA         MOCLDY    67  66  97 SW3       30.06R
6HR MIN TEMP:  66; 6HR MAX TEMP:  70; 6HR PCP:  0.55;

MANHATTAN      CLOUDY    65  64  97 CALM      30.01R
EMPORIA        CLOUDY    68  66  93 E7        30.05S
CHANUTE        CLOUDY    71  69  93 SE6       30.05R FOG
WICHITA        CLOUDY    72  68  87 NE6       30.04R
OMAHA          FOG       67  64  90 S7        30.01R VSB 1/2
LINCOLN        CLOUDY    68  67  96 SE3       30.03R FOG
FALLS CITY     CLOUDY    68  68 100 SW7       29.99S
LAMONI         CLOUDY    67  67 100 CALM      30.02R FOG
DES MOINES     CLOUDY    64  62  93 N3        30.01R FOG

$$





USA.gov is the U.S. government's official web portal to all federal, state and local government web resources and services.